Regional Weather Roundup
Issued by NWS

Home | Current Version | Previous Version | Text Only | Print | Product List | Glossary On
Versions: 1 2 3 4 5 6 7 8 9 10 11 12 13 14 15 16 17 18 19 20 21 22 23 24 25 26 27 28 29 30 31 32 33 34 35 36 37 38 39 40 41 42 43 44 45 46 47 48 49 50
000
ASUS44 KBMX 222310
RWRAL

ALABAMA REGIONAL WEATHER ROUNDUP
NATIONAL WEATHER SERVICE BIRMINGHAM AL
600 PM CDT MON SEP 22 2014

NOTE: "FAIR" INDICATES FEW OR NO CLOUDS BELOW 12,000 FEET
WITH NO SIGNIFICANT WEATHER AND/OR OBSTRUCTIONS TO VISIBILITY.

THE REMARK "TC" DENOTES TEMPERATURE IN DEGREES CELSIUS.

ALZ001>011-014-016>018-020-230000-
NORTH ALABAMA

CITY           SKY/WX    TMP DP  RH WIND       PRES   REMARKS
MUSCLE SHOALS  CLEAR     75  47  36 N8        30.14R
HUNTSVILLE     CLEAR     76  44  32 N10       30.11S
DECATUR        CLEAR     75  44  33 N13       30.13R
HALEYVILLE     FAIR      73  48  41 N3        30.15R
GADSDEN        CLEAR     75  46  35 N10       30.08R
$$

ALZ012-013-022-023-030>036-040>044-230000-
WEST CENTRAL ALABAMA

CITY           SKY/WX    TMP DP  RH WIND       PRES   REMARKS
TUSCALOOSA     CLEAR     79  46  31 NE15      30.06R
$$

ALZ015-024>027-033>036-040>044-230000-
CENTRAL ALABAMA

CITY           SKY/WX    TMP DP  RH WIND       PRES   REMARKS
BIRMINGHAM     CLEAR     76  47  35 N14       30.10R
MONTGOMERY     CLEAR     81  52  36 N8        30.02S
SHELBY CO ARPT CLEAR     79  52  38 VRB6      30.06R
MAXWELL AFB    CLEAR     80  54  40 N7        30.02S
GREENVILLE     FAIR      80  52  37 N7        30.01R
$$

ALZ019-021-028-029-037-038-045>048-230000-
EAST CENTRAL ALABAMA

CITY           SKY/WX    TMP DP  RH WIND       PRES   REMARKS
ANNISTON       CLEAR     76  49  38 N10       30.06S
ALEXANDER CITY CLEAR     79  52  39 N8        30.04S
AUBURN         CLEAR     75  48  38 N6        30.07R
$$

ALZ051>064-230000-
SOUTHWEST ALABAMA

CITY           SKY/WX    TMP DP  RH WIND       PRES   REMARKS
MOBILE         PTCLDY    81  64  56 NE8       30.00R
BROOKLEY FIELD CLEAR     83  65  54 N10       30.00R
EVERGREEN      CLEAR     83  56  39 NE7       30.00S
$$

ALZ049-050-065>069-230000-
SOUTHEAST ALABAMA

CITY           SKY/WX    TMP DP  RH WIND       PRES   REMARKS
DOTHAN         PTCLDY    74  66  76 NE3       30.06R
OZARK          PTCLDY    74  67  79 E5        30.02R
TROY           CLEAR     78  63  59 E3        30.02S
EUFAULA        FAIR      75  67  76 CALM      30.01R
$$


USA.gov is the U.S. government's official web portal to all federal, state and local government web resources and services.